2021 CP6
ephemeris date magn radius delta ra dec elong phase
Today5 Sep 202628.42.672 AU2.971 AU06h39m+24°54'63.2°19.7°
2021 CP6 - 2026-09-05
astro.vanbuitenen.nl


 
-1 year
-1 month
-1 day
Now
+1 day
+1 month
+1 year

The interactive orbit chart above shows the body's path through the solar system and its position at the given date. Green and blue lines are shown perpendicular to the ecliptic plane: Green if the path is above the ecliptic plane, blue if it is below. (Left-click and drag to rotate the view; Right-click and drag to move the view; Use scroll wheel to zoom in our out.)

The orbital elements of 2021 CP6 are:

            e (Eccentricity)                : 0.5266849
            a (Semimajor axis)              : 2.1081109
            i (Inclination)                 : 2.71791
            Ω (Longitude of ascending node) : 305.59216
            ω (Argument of perihelion)      : 278.35238
            M (Mean anomaly)                : 237.14786
            Epoch                           : 2026 Jun 09

            L (Longitude of perihelion)     : 223.95381
            B (Latitude of perihelion)      : -2.68906
            P (Orbital period in years)     : 3.06            
        

The light curve chart below shows the estimated development of the minor planet's magnitude.


The all-sky chart below shows the path of the minor planet over the same period as the light curve. The current position is marked yellow.





The following chart shows the path of the minor planet in the next few days. The field of view is optimized for (~10x50) binoculars and finderscopes.




Ephemerides:
Date       Time       RA (2000)    DEC (2000)    delta   radius  elong  phase   PA    magn
2026-09-05 00:00 UT   06 39 31.0   +24 54 02     2.971    2.672   63.2   19.7   275   28.4 
2026-09-05 14:00 UT   06 40 19.7   +24 53 21     2.962    2.669   63.5   19.8   275   28.4 
2026-09-06 00:00 UT   06 40 54.4   +24 52 51     2.955    2.668   63.8   19.8   275   28.4 
2026-09-07 00:00 UT   06 42 17.4   +24 51 37     2.938    2.663   64.5   20.0   275   28.4 
2026-09-08 00:00 UT   06 43 40.0   +24 50 21     2.921    2.659   65.1   20.1   275   28.4 
2026-09-09 00:00 UT   06 45 02.3   +24 49 04     2.904    2.655   65.8   20.2   275   28.3 
2026-09-10 00:00 UT   06 46 24.1   +24 47 44     2.887    2.650   66.4   20.4   275   28.3 
2026-09-11 00:00 UT   06 47 45.6   +24 46 22     2.870    2.646   67.1   20.5   275   28.3 
2026-09-12 00:00 UT   06 49 06.7   +24 44 58     2.853    2.642   67.8   20.7   276   28.3 
2026-09-13 00:00 UT   06 50 27.4   +24 43 32     2.836    2.637   68.4   20.8   276   28.3 
2026-09-14 00:00 UT   06 51 47.6   +24 42 04     2.818    2.633   69.1   20.9   276   28.3 
2026-09-15 00:00 UT   06 53 07.4   +24 40 35     2.801    2.629   69.8   21.0   276   28.3 
2026-09-16 00:00 UT   06 54 26.7   +24 39 03     2.784    2.624   70.4   21.2   276   28.3 
2026-09-17 00:00 UT   06 55 45.6   +24 37 30     2.766    2.620   71.1   21.3   276   28.2 
2026-09-18 00:00 UT   06 57 04.1   +24 35 56     2.749    2.615   71.8   21.4   276   28.2 
2026-09-19 00:00 UT   06 58 22.0   +24 34 19     2.731    2.611   72.5   21.5   276   28.2 
2026-09-20 00:00 UT   06 59 39.5   +24 32 41     2.714    2.606   73.2   21.6   276   28.2 
2026-09-21 00:00 UT   07 00 56.5   +24 31 02     2.696    2.602   73.8   21.8   277   28.2 
2026-09-22 00:00 UT   07 02 13.0   +24 29 21     2.678    2.597   74.5   21.9   277   28.2 
2026-09-23 00:00 UT   07 03 28.9   +24 27 39     2.660    2.593   75.2   22.0   277   28.2 
2026-09-24 00:00 UT   07 04 44.4   +24 25 56     2.643    2.588   75.9   22.1   277   28.1 
2026-09-25 00:00 UT   07 05 59.3   +24 24 11     2.625    2.583   76.6   22.2   277   28.1 
2026-09-26 00:00 UT   07 07 13.6   +24 22 26     2.607    2.579   77.3   22.3   277   28.1 
2026-09-27 00:00 UT   07 08 27.4   +24 20 39     2.589    2.574   78.0   22.4   277   28.1 
2026-09-28 00:00 UT   07 09 40.6   +24 18 51     2.571    2.570   78.7   22.5   277   28.1 
2026-09-29 00:00 UT   07 10 53.3   +24 17 02     2.553    2.565   79.4   22.6   277   28.1 
2026-09-30 00:00 UT   07 12 05.3   +24 15 12     2.535    2.560   80.1   22.7   277   28.0 
2026-10-01 00:00 UT   07 13 16.7   +24 13 21     2.517    2.555   80.8   22.8   277   28.0 
2026-10-02 00:00 UT   07 14 27.5   +24 11 29     2.499    2.551   81.5   22.8   278   28.0 
2026-10-03 00:00 UT   07 15 37.7   +24 09 37     2.480    2.546   82.2   22.9   278   28.0 


    Terminology:
            
    delta:  distance between minor planet and earth in AU
    radius: distance between minor planet and sun in AU
    magn:   magnitude (brightness) estimate    
    ra:     right ascension in hours (24h = 360deg)
    dec:    declination in degrees
    elong:  elongation in degrees (angle sun-earth-minor planet)    
    phase:  phase angle in degrees (angle sun-minor planet-earth)        
    AU:     Astronomical Unit (mean distance between earth and sun: 149597870.7 km
    

Orbital elements provided by the MPC (Minor Planet Center).
Calculations by a modified version of AAPlus, a C# implementation of the AA+ project by PJ Naughter from the algorithms presented in the book "Astronomical Algorithms" by Jean Meeus.
NGC2000 dso catalog and star labels from VizieR as provided by the Strasbourg astronomical Data Center.
Tycho2 catalog from the ESO archive.